Home   Weather   Norman Wells   Past weeks

Flag for Canada Past Weather in Norman Wells, Northwest Territories, Canada — Yesterday and Last 2 Weeks

Now
34 °F

Partly cloudy.


Feels Like: 31 °F
Forecast: 34 / 51 °F
Wind: 3 mph from Northeast

Location: Norman Wells

Current Time: Sep 26, 2016 at 4:36:47 AM

Latest Report: Sep 26, 2016 at 4:00 AM


Visibility: 30 mi

Pressure: 29.77 "Hg

Humidity: 87%

Dew Point: 30 °F

Location of Norman WellsLocation

Past Weather in Norman Wells — Graph

°F

Norman Wells Temperature Yesterday

Maximum temperature yesterday: 57 °F (at 4:00 PM)
Minimum temperature yesterday: 28 °F (at 6:00 AM)
Average temperature yesterday: 43 °F

High & Low Weather Summary for the Past Weeks

 TemperatureHumidityPressure
High73 °F (Sep 22, 3:00 PM)100% (Sep 12, 8:00 PM)30.15 "Hg (Sep 12, 8:00 PM)
Low28 °F (Sep 25, 6:00 AM)20% (Sep 22, 3:00 PM)29.12 "Hg (Sep 22, 10:00 PM)
Average44 °F76%29.70 "Hg
* Reported Sep 11 3:00 AM — Sep 26 3:00 AM, Norman Wells, Weather by CustomWeather, © 2016

Note: Actual official high and low records may vary slightly from our data, if they occured in-between our weather recording intervals... More about our weather records

Advertising

Norman Wells Weather History for the Previous 24 Hours

Scroll right to see more
 ConditionsComfort  
Time TempWeatherWind HumidityBarometerVisibility
3:00 AM
Mon, Sep 26
32 °FPassing clouds.No wind87%29.78 "Hg30 mi
2:00 AM36 °FPartly cloudy.3 mph81%29.79 "Hg30 mi
1:00 AM37 °FPassing clouds.5 mph81%29.80 "Hg30 mi
12:00 AM37 °FPassing clouds.2 mph81%29.80 "Hg30 mi
11:00 PM
Sun, Sep 25
39 °FPartly cloudy.No wind81%29.81 "Hg30 mi
10:00 PM41 °FPartly cloudy.2 mph76%29.81 "Hg30 mi
9:00 PM45 °FMostly cloudy.3 mph76%29.81 "Hg30 mi
8:00 PM48 °FPartly sunny.2 mph71%29.81 "Hg30 mi
7:00 PM52 °FBroken clouds.3 mph58%29.80 "Hg30 mi
6:00 PM54 °FBroken clouds.2 mph54%29.80 "Hg30 mi
5:00 PM52 °FPartly sunny.2 mph62%29.80 "Hg30 mi
4:00 PM57 °FBroken clouds.8 mph44%29.79 "Hg30 mi
3:00 PM55 °FBroken clouds.7 mph41%29.81 "Hg30 mi
2:00 PM48 °FBroken clouds.2 mph62%29.81 "Hg30 mi
1:00 PM45 °FPartly sunny.6 mph71%29.81 "Hg30 mi
12:00 PM43 °FPartly sunny.10 mph71%29.82 "Hg30 mi
11:00 AM39 °FPartly sunny.5 mph87%29.83 "Hg30 mi
10:00 AM37 °FPartly sunny.8 mph81%29.83 "Hg30 mi
9:00 AM30 °FPassing clouds.3 mph93%29.83 "Hg30 mi
8:00 AM30 °FPassing clouds.6 mph93%29.84 "Hg30 mi
7:00 AM32 °FPassing clouds.6 mph93%29.86 "Hg30 mi
6:00 AM28 °FClear.3 mph86%29.86 "Hg30 mi
5:00 AM30 °FClear.3 mph86%29.85 "Hg30 mi
4:00 AM43 °FClear.6 mph66%29.85 "Hg30 mi
Weather by CustomWeather, © 2016

See weather overviewHow to use our weather pages